| time (UTC) | temp C | wind direction | speed KPH | gust KPH | rain 1hr cm | rain 24hr cm | rain mn cm | humidity % | barometer mb |
| 20260506003015 | 9 | 23 | 0.0 | 11.3 | 0.00 | 2.54 | 2.54 | 92 | 1009.3 |
| 20260506002015 | 9 | 348 | 0.0 | 4.8 | 0.00 | 2.54 | 2.54 | 92 | 1009.5 |
| 20260506001016 | 10 | 4 | 0.0 | 6.4 | 0.00 | 2.54 | 2.54 | 92 | 1009.5 |
| 20260506000015 | 10 | 5 | 1.6 | 12.9 | 0.00 | 2.54 | 2.54 | 92 | 1009.1 |
| 20260505235013 | 10 | 18 | 1.6 | 14.5 | 0.00 | 2.54 | 2.54 | 92 | 1009.2 |
| 20260505234014 | 10 | 84 | 1.6 | 24.1 | 0.00 | 2.54 | 2.54 | 92 | 1009.0 |
| 20260505233011 | 10 | 27 | 0.0 | 8.0 | 0.00 | 2.54 | 2.54 | 92 | 1008.6 |
| 20260505232013 | 10 | 14 | 1.6 | 12.9 | 0.00 | 2.54 | 2.54 | 92 | 1008.5 |
| 20260505231011 | 10 | 323 | 1.6 | 14.5 | 0.00 | 2.54 | 2.54 | 92 | 1008.7 |
| 20260505230011 | 10 | 319 | 1.6 | 25.7 | 0.00 | 2.54 | 2.54 | 92 | 1008.5 |
| 20260505225010 | 11 | 37 | 3.2 | 19.3 | 0.00 | 2.54 | 2.54 | 92 | 1008.1 |
| 20260505224013 | 11 | 39 | 0.0 | 8.0 | 0.00 | 2.54 | 2.54 | 92 | 1007.8 |
| 20260505224009 | 11 | 354 | 1.6 | 17.7 | 0.00 | 2.54 | 2.54 | 92 | 1008.1 |
| 20260505223113 | 11 | 354 | 1.6 | 17.7 | 0.00 | 2.54 | 2.54 | 92 | 1008.1 |
| 20260505222006 | 11 | 1 | 1.6 | 12.9 | 0.00 | 2.54 | 2.54 | 91 | 1008.1 |
| 20260505221006 | 11 | 333 | 1.6 | 12.9 | 0.00 | 2.54 | 2.54 | 91 | 1007.7 |
| 20260505220008 | 12 | 352 | 1.6 | 12.9 | 0.00 | 2.54 | 2.54 | 91 | 1007.4 |
| 20260505215008 | 12 | 66 | 0.0 | 3.2 | 0.00 | 2.54 | 2.54 | 91 | 1007.4 |
| 20260505214133 | 12 | 12 | 1.6 | 12.9 | 0.00 | 2.54 | 2.54 | 91 | 1007.8 |
| 20260505214112 | 12 | 322 | 1.6 | 19.3 | 0.00 | 2.54 | 2.54 | 91 | 1007.3 |
| 20260505213111 | 12 | 12 | 1.6 | 12.9 | 0.00 | 2.54 | 2.54 | 91 | 1007.8 |
| 20260505212007 | 12 | 30 | 1.6 | 12.9 | 0.00 | 2.54 | 2.54 | 91 | 1007.7 |
| 20260505211008 | 13 | 30 | 1.6 | 12.9 | 0.00 | 2.54 | 2.54 | 91 | 1007.2 |
| 20260505210008 | 13 | 333 | 1.6 | 12.9 | 0.00 | 2.54 | 2.54 | 91 | 1007.2 |
| 20260505205006 | 13 | 106 | 1.6 | 11.3 | 0.00 | 2.54 | 2.54 | 92 | 1007.2 |
| 20260505204009 | 13 | 23 | 3.2 | 17.7 | 0.00 | 2.54 | 2.54 | 91 | 1007.2 |
| 20260505203006 | 13 | 8 | 0.0 | 11.3 | 0.00 | 2.54 | 2.54 | 92 | 1007.1 |
| 20260505202009 | 13 | 33 | 0.0 | 12.9 | 0.00 | 2.54 | 2.54 | 92 | 1007.2 |
| 20260505201006 | 13 | 26 | 0.0 | 8.0 | 0.00 | 2.54 | 2.54 | 92 | 1007.3 |
| 20260505200004 | 13 | 42 | 1.6 | 14.5 | 0.00 | 2.54 | 2.54 | 92 | 1007.1 |
| 20260505195003 | 13 | 14 | 0.0 | 11.3 | 0.00 | 2.54 | 2.54 | 92 | 1007.5 |
| 20260505194004 | 14 | 1 | 1.6 | 11.3 | 0.00 | 2.54 | 2.54 | 92 | 1007.7 |
| 20260505193005 | 14 | 9 | 1.6 | 12.9 | 0.00 | 2.54 | 2.54 | 92 | 1007.3 |
| 20260505192001 | 14 | 53 | 3.2 | 16.1 | 0.00 | 2.54 | 2.54 | 92 | 1005.8 |
| 20260505191001 | 14 | 32 | 1.6 | 11.3 | 0.00 | 2.54 | 2.54 | 91 | 1007.0 |
| 20260505190012 | 15 | 114 | 4.8 | 16.1 | 0.00 | 2.54 | 2.54 | 91 | 1007.0 |
| 20260505190000 | 14 | 4 | 0.0 | 9.7 | 0.00 | 2.54 | 2.54 | 92 | 1006.8 |
| 20260505185105 | 15 | 114 | 4.8 | 16.1 | 0.00 | 2.54 | 2.54 | 91 | 1007.0 |
| 20260505184001 | 15 | 2 | 3.2 | 22.5 | 0.00 | 2.54 | 2.54 | 90 | 1006.3 |
| 20260505183003 | 17 | 355 | 1.6 | 14.5 | 0.00 | 2.54 | 2.54 | 90 | 1006.2 |
| 20260505182001 | 17 | 8 | 1.6 | 8.0 | 0.00 | 2.54 | 2.54 | 92 | 1006.3 |
| 20260505180957 | 18 | 342 | 0.0 | 6.4 | 0.00 | 2.54 | 2.54 | 92 | 1006.1 |
| 20260505175954 | 18 | 1 | 0.0 | 3.2 | 0.00 | 2.54 | 2.54 | 92 | 1005.9 |
| 20260505174956 | 18 | 334 | 0.0 | 6.4 | 0.00 | 2.54 | 2.54 | 92 | 1005.6 |
| 20260505173953 | 18 | 354 | 0.0 | 1.6 | 0.00 | 2.54 | 2.54 | 92 | 1006.1 |
| 20260505172955 | 19 | 19 | 0.0 | 1.6 | 0.00 | 2.54 | 2.54 | 92 | 1006.1 |
| 20260505171956 | 19 | 359 | 0.0 | 1.6 | 0.00 | 2.54 | 2.54 | 92 | 1006.0 |
| 20260505170955 | 19 | 346 | 0.0 | 1.6 | 0.00 | 2.54 | 2.54 | 91 | 1005.9 |
| 20260505170005 | 19 | 359 | 0.0 | 0.0 | 0.00 | 2.54 | 2.54 | 91 | 1006.0 |
| 20260505165954 | 19 | 301 | 0.0 | 0.0 | 0.00 | 2.54 | 2.54 | 91 | 1005.9 |
| 20260505165059 | 19 | 359 | 0.0 | 0.0 | 0.00 | 2.54 | 2.54 | 91 | 1006.0 |
| 20260505163954 | 19 | 12 | 0.0 | 1.6 | 0.00 | 2.54 | 2.54 | 90 | 1006.0 |
| 20260505163003 | 20 | 213 | 0.0 | 0.0 | 0.00 | 2.54 | 2.54 | 89 | 1005.8 |
| 20260505162953 | 20 | 150 | 0.0 | 0.0 | 0.00 | 2.54 | 2.54 | 90 | 1006.0 |
| 20260505162057 | 20 | 213 | 0.0 | 0.0 | 0.00 | 2.54 | 2.54 | 89 | 1005.8 |
| 20260505160954 | 20 | 225 | 0.0 | 1.6 | 0.00 | 2.54 | 2.54 | 90 | 1005.8 |
| 20260505152950 | 20 | 169 | 0.0 | 4.8 | 0.00 | 2.54 | 2.54 | 90 | 1005.5 |
| 20260505151952 | 20 | 117 | 0.0 | 1.6 | 0.00 | 2.54 | 2.54 | 91 | 1005.5 |
| 20260505150952 | 19 | 150 | 0.0 | 1.6 | 0.00 | 2.54 | 2.54 | 90 | 1005.6 |
| 20260505124944 | 16 | 145 | 0.0 | 8.0 | 0.00 | 2.54 | 2.54 | 95 | 1006.0 |
| 20260505123942 | 16 | 168 | 1.6 | 8.0 | 0.00 | 2.54 | 2.54 | 96 | 1006.0 |
| 20260505122943 | 16 | 174 | 1.6 | 6.4 | 0.00 | 2.54 | 2.54 | 96 | 1005.8 |
| 20260505121939 | 16 | 160 | 1.6 | 11.3 | 0.00 | 2.54 | 2.54 | 96 | 1005.8 |
| 20260505120939 | 15 | 164 | 1.6 | 11.3 | 0.00 | 2.54 | 2.54 | 96 | 1005.9 |
| 20260505115938 | 15 | 160 | 3.2 | 9.7 | 0.00 | 2.54 | 2.54 | 96 | 1005.7 |
| 20260505114949 | 15 | 163 | 1.6 | 4.8 | 0.00 | 2.54 | 2.54 | 96 | 1005.6 |
| 20260505114939 | 15 | 169 | 1.6 | 6.4 | 0.00 | 2.54 | 2.54 | 96 | 1005.7 |
| 20260505114102 | 15 | 152 | 1.6 | 9.7 | 0.00 | 2.54 | 2.54 | 96 | 1005.7 |
| 20260505114043 | 15 | 163 | 1.6 | 4.8 | 0.00 | 2.54 | 2.54 | 96 | 1005.6 |
| 20260505113043 | 15 | 152 | 1.6 | 9.7 | 0.00 | 2.54 | 2.54 | 96 | 1005.7 |
| 20260505111937 | 15 | 151 | 1.6 | 8.0 | 0.00 | 2.54 | 2.54 | 96 | 1005.7 |
| 20260505110936 | 15 | 354 | 0.0 | 1.6 | 0.00 | 2.54 | 2.54 | 96 | 1005.6 |
| 20260505102040 | 15 | 353 | 0.0 | 1.6 | 0.05 | 2.54 | 2.54 | 96 | 1006.2 |
| 20260505100936 | 15 | 353 | 0.0 | 0.0 | 0.05 | 2.54 | 2.54 | 96 | 1006.1 |
| 20260505095937 | 15 | 353 | 0.0 | 0.0 | 0.08 | 2.54 | 2.54 | 96 | 1006.4 |
| 20260505094937 | 15 | 353 | 0.0 | 0.0 | 0.10 | 2.54 | 2.54 | 96 | 1006.4 |
| 20260505093945 | 15 | 4 | 0.0 | 1.6 | 0.08 | 2.51 | 2.51 | 95 | 1006.5 |
| 20260505093935 | 15 | 353 | 0.0 | 6.4 | 0.08 | 2.51 | 2.51 | 96 | 1006.5 |
| 20260505093042 | 15 | 4 | 0.0 | 1.6 | 0.08 | 2.51 | 2.51 | 95 | 1006.5 |
| 20260505091937 | 15 | 19 | 0.0 | 1.6 | 0.10 | 2.49 | 2.49 | 95 | 1006.8 |
| 20260505090937 | 15 | 19 | 0.0 | 1.6 | 0.41 | 2.49 | 2.49 | 95 | 1006.5 |
| 20260505085937 | 15 | 19 | 0.0 | 1.6 | 0.79 | 2.46 | 2.46 | 95 | 1006.5 |
| 20260505084936 | 15 | 6 | 0.0 | 1.6 | 1.22 | 2.44 | 2.44 | 95 | 1006.8 |
| 20260505083933 | 15 | 8 | 0.0 | 0.0 | 1.93 | 2.44 | 2.44 | 95 | 1006.3 |
| 20260505082927 | 15 | 7 | 0.0 | 1.6 | 2.13 | 2.44 | 2.44 | 95 | 1006.5 |
| 20260505081935 | 16 | 356 | 0.0 | 11.3 | 1.78 | 2.08 | 2.13 | 94 | 1005.3 |
| 20260505081926 | 16 | 13 | 0.0 | 3.2 | 2.08 | 2.39 | 2.41 | 94 | 1006.7 |
| 20260505081030 | 16 | 356 | 0.0 | 11.3 | 1.78 | 2.08 | 2.13 | 94 | 1005.3 |
| 20260505075921 | 16 | 0 | 1.6 | 11.3 | 1.35 | 1.65 | 1.68 | 92 | 1006.4 |
| 20260505074919 | 16 | 16 | 8.0 | 24.1 | 1.02 | 1.22 | 1.24 | 91 | 1006.3 |
| 20260505073922 | 17 | 0 | 8.0 | 32.2 | 0.46 | 0.51 | 0.56 | 90 | 1005.9 |
| 20260505072919 | 16 | 337 | 1.6 | 22.5 | 0.25 | 0.30 | 0.30 | 92 | 1006.2 |
| 20260505071922 | 16 | 26 | 0.0 | 1.6 | 0.25 | 0.30 | 0.30 | 91 | 1004.7 |
| 20260505070917 | 16 | 90 | 0.0 | 3.2 | 0.30 | 0.30 | 0.30 | 92 | 1004.6 |
| 20260505065918 | 16 | 167 | 4.8 | 12.9 | 0.30 | 0.30 | 0.30 | 92 | 1004.8 |
| 20260505064919 | 16 | 148 | 3.2 | 9.7 | 0.20 | 0.20 | 0.20 | 92 | 1005.1 |
| 20260505063915 | 16 | 167 | 0.0 | 0.0 | 0.05 | 0.05 | 0.05 | 90 | 1006.8 |
| 20260505062916 | 16 | 167 | 0.0 | 1.6 | 0.05 | 0.05 | 0.05 | 89 | 1006.7 |
| 20260505061915 | 17 | 157 | 0.0 | 1.6 | 0.05 | 0.05 | 0.05 | 87 | 1005.3 |
| 20260505060916 | 17 | 342 | 0.0 | 0.0 | 0.00 | 0.00 | 0.00 | 83 | 1006.5 |
| 20260505055913 | 18 | 357 | 0.0 | 0.0 | 0.00 | 0.00 | 0.00 | 80 | 1006.0 |
| 20260505054913 | 18 | 162 | 0.0 | 0.0 | 0.00 | 0.00 | 0.00 | 76 | 1007.0 |
| 20260505053914 | 18 | 162 | 0.0 | 1.6 | 0.00 | 0.00 | 0.00 | 75 | 1007.0 |
| 20260505052912 | 18 | 162 | 1.6 | 9.7 | 0.00 | 0.00 | 0.00 | 75 | 1006.5 |
| 20260505051912 | 18 | 136 | 0.0 | 6.4 | 0.00 | 0.00 | 0.00 | 76 | 1006.9 |
| 20260505050912 | 18 | 165 | 1.6 | 14.5 | 0.00 | 0.00 | 0.00 | 76 | 1006.2 |
| 20260505040908 | 17 | 169 | 0.0 | 1.6 | 0.00 | 0.00 | 0.00 | 80 | 1007.1 |
| 20260505035907 | 17 | 153 | 0.0 | 3.2 | 0.00 | 0.00 | 0.00 | 79 | 1007.3 |
| 20260505034905 | 18 | 153 | 0.0 | 1.6 | 0.00 | 0.00 | 0.00 | 78 | 1007.3 |
| 20260505033906 | 18 | 153 | 0.0 | 3.2 | 0.00 | 0.00 | 0.00 | 77 | 1007.5 |
| 20260505032905 | 18 | 153 | 0.0 | 3.2 | 0.00 | 0.00 | 0.00 | 77 | 1007.6 |
| 20260505031904 | 18 | 153 | 0.0 | 3.2 | 0.00 | 0.00 | 0.00 | 77 | 1007.4 |
| 20260505030904 | 18 | 153 | 0.0 | 4.8 | 0.00 | 0.00 | 0.00 | 77 | 1007.7 |
| 20260505025918 | 19 | 197 | 0.0 | 3.2 | 0.00 | 0.00 | 0.00 | 75 | 1007.7 |
| 20260505025907 | 18 | 152 | 0.0 | 4.8 | 0.00 | 0.00 | 0.00 | 76 | 1007.7 |
| 20260505024905 | 19 | 152 | 1.6 | 8.0 | 0.00 | 0.00 | 0.00 | 76 | 1007.7 |
| 20260505024010 | 19 | 197 | 0.0 | 3.2 | 0.00 | 0.00 | 0.00 | 75 | 1007.7 |
| 20260505022903 | 19 | 197 | 0.0 | 3.2 | 0.00 | 0.00 | 0.00 | 74 | 1007.4 |
| 20260505021904 | 19 | 172 | 1.6 | 6.4 | 0.00 | 0.00 | 0.00 | 75 | 1007.5 |
| 20260505020914 | 20 | 169 | 0.0 | 4.8 | 0.00 | 0.00 | 0.00 | 73 | 1007.0 |
| 20260505020904 | 19 | 219 | 0.0 | 6.4 | 0.00 | 0.00 | 0.00 | 74 | 1007.0 |
| 20260505020028 | 20 | 168 | 0.0 | 4.8 | 0.00 | 0.00 | 0.00 | 72 | 1006.9 |
| 20260505020010 | 20 | 169 | 0.0 | 4.8 | 0.00 | 0.00 | 0.00 | 73 | 1007.0 |
| 20260505015028 | 20 | 186 | 0.0 | 4.8 | 0.00 | 0.00 | 0.00 | 71 | 1006.8 |
| 20260505015008 | 20 | 168 | 0.0 | 4.8 | 0.00 | 0.00 | 0.00 | 72 | 1006.9 |
| 20260505014005 | 20 | 186 | 0.0 | 4.8 | 0.00 | 0.00 | 0.00 | 71 | 1006.8 |
| 20260505012902 | 20 | 182 | 1.6 | 6.4 | 0.00 | 0.00 | 0.00 | 71 | 1006.9 |
| 20260505011900 | 20 | 205 | 0.0 | 3.2 | 0.00 | 0.00 | 0.00 | 70 | 1006.5 |
| 20260505010900 | 20 | 205 | 0.0 | 4.8 | 0.00 | 0.00 | 0.00 | 69 | 1006.2 |
| 20260505005857 | 21 | 193 | 0.0 | 4.8 | 0.00 | 0.00 | 0.00 | 69 | 1006.1 |
| 20260505004858 | 21 | 161 | 1.6 | 4.8 | 0.00 | 0.00 | 0.00 | 69 | 1006.1 |
| 20260505003858 | 21 | 168 | 3.2 | 6.4 | 0.00 | 0.00 | 0.00 | 68 | 1006.1 |